Regional Weather Roundup
Issued by NWS

Home | Current Version | Previous Version | Graphics & Text | Print | Product List | Glossary On
Versions: 1 2 3 4 5 6 7 8 9 10 11 12 13 14 15 16 17 18 19 20 21 22 23 24 25 26 27 28 29 30 31 32 33 34 35 36 37 38 39 40 41 42 43 44 45 46 47 48 49 50
000
ASUS45 KBOU 291407
RWRCO

WEATHER ROUNDUP FOR COLORADO
NATIONAL WEATHER SERVICE DENVER/BOULDER CO
700 AM MST THU JAN 29 2015

NOTE: "FAIR" INDICATES FEW OR NO CLOUDS BELOW 12000 FEET WITH NO
SIGNIFICANT WEATHER AND/OR OBSTRUCTIONS TO VISIBILITY.

COZ001>005-013-030-031-291500-
...NORTHWEST COLORADO...

CITY           SKY/WX    TMP DP  RH WIND       PRES   REMARKS
CRAIG          PTCLDY    28  26  92 CALM      30.41R
HAYDEN         PTCLDY    30  27  86 E7        30.40R WCI  23
MEEKER         PTCLDY    17  15  92 CALM      30.40R
MOUNT WERNER   NOT AVBL
STEAMBOAT SPGS PTCLDY    28  25  91 CALM      30.40R
WALDEN         MOCLDY    28  27  93 N7        30.40R WCI  21
$$

COZ006>008-011-291500-
...WEST CENTRAL VALLEYS...

CITY           SKY/WX    TMP DP  RH WIND       PRES   REMARKS
GRAND JUNCTION CLOUDY    32  27  81 SE6       30.35R WCI  26
MONTROSE       CLOUDY    27  24  89 S8        30.39R WCI  19
EAGLE          PTCLDY    28  27  93 CALM      30.44R
RIFLE          PTCLDY    28  24  85 SW3       30.39R
DELTA          CLOUDY    30  26  83 CALM      30.38S
NUCLA          CLOUDY    30  27  86 E5        30.38R WCI  25
$$

COZ017>023-064>068-291500-
...SOUTHWEST COLORADO...

CITY           SKY/WX    TMP DP  RH WIND       PRES   REMARKS
DURANGO        CLOUDY    29  26  89 NE3       30.35R
CORTEZ         CLEAR     30  27  88 CALM      30.33R
PAGOSA SPRINGS MOCLDY    29  28  96 CALM      30.38R
TELLURIDE      PTCLDY    28  19  69 SE3       30.38R
WOLF CREEK PAS NOT AVBL
$$

COZ009-010-012-014-032>034-037-058>063-291500-
...CENTRAL COLORADO...

CITY           SKY/WX    TMP DP  RH WIND       PRES   REMARKS
ASPEN          MOCLDY    26  17  68 S8        30.39R WCI  18
BUENA VISTA    MOCLDY    23  18  82 NW3       30.45R
COPPER MTN     CLOUDY    23  18  80 CALM      30.43R
BERTHOUD PASS  CLOUDY    14   9  79 NW12      30.43R WCI   0
COTTONWOOD PAS MOCLDY    28  19  69 CALM      30.44R
GUNNISON       CLOUDY    10   5  79 CALM      30.46R
KREMMLING      CLOUDY    25  23  93 CALM      30.42R
LEADVILLE      MOCLDY    17  11  77 CALM      30.41R
MONARCH PASS   MOCLDY    18  14  86 MISG      30.53R
SALIDA         CLOUDY    30  21  70 CALM      30.53R
SUNLIGHT       MOCLDY    25  23  93 CALM        N/A
WILKERSON PASS FOG       19  18  93 S5        30.47R VSB<1/4 WCI  13
$$

COZ069>075-291500-
...SAN LUIS VALLEY/SANGRE DE CRISTO MOUNTAINS...

CITY           SKY/WX    TMP DP  RH WIND       PRES   REMARKS
ALAMOSA        CLOUDY    22  17  81 CALM      30.38R
LA VETA PASS   NOT AVBL
SAGUACHE       CLOUDY    27  21  80 NW10      30.40R WCI  17
$$

COZ035-036-038>040-291500-
...NORTHERN COLORADO FRONT RANGE...

CITY           SKY/WX    TMP DP  RH WIND       PRES   REMARKS
DENVER INTL AP CLOUDY    36  27  69 N8        30.47R
DMNS CITY PARK   N/A     38  24  58 E5G10     30.47R
AURORA         CLOUDY    34  28  78 N2        30.47R
FRONT RANGE AP NOT AVBL
ERIE MUNI ARPT CLOUDY    36  29  78 N3        30.48R
BOULDER MUN AP CLOUDY    37  27  65 CALM      30.47R
CENTENNIAL     CLOUDY    36  27  69 N3        30.46R
BROOMFIELD     CLOUDY    37  27  65 N7        30.48R
FORT COLLINS   CLOUDY    37  27  65 NE5       30.49R
LONGMONT       CLOUDY    38  29  70 NW3       30.50R
$$

COZ041-046-047-076>085-087-088-291500-
...PIKES PEAK/PALMER DIVIDE AND SOUTHERN FOOTHILLS...

CITY           SKY/WX    TMP DP  RH WIND       PRES   REMARKS
COLO. SPRINGS  CLOUDY    37  26  64 CALM      30.47R
A. F. ACADEMY  CLOUDY    35  27  73 N8        30.45R WCI  28
ELLICOTT       CLOUDY   N/A N/A N/A SW6       30.46R
FALCON         CLOUDY    33  24  70 N7        30.46R WCI  27
FORT CARSON    CLOUDY    37  27  65 S3        30.46R
LIMON          CLOUDY    33  26  75 NW9       30.45R WCI  25
MONUMENT HILL  CLOUDY    30  28  93 NW5       30.45R WCI  25
TRINIDAD       CLOUDY    36  29  75 CALM      30.47R
$$

COZ042>045-048>051-090-091-291500-
...NORTHEAST COLORADO...

CITY           SKY/WX    TMP DP  RH WIND       PRES   REMARKS
GREELEY ARPT   CLOUDY    37  25  60 N5        30.47R
AKRON          CLOUDY    33  22  63 NW12      30.45R WCI  24
BURLINGTON     CLOUDY    32  28  85 NW9       30.44R WCI  24
WRAY           PTCLDY    30  26  84 NW8       30.45R WCI  23
STERLING       MOCLDY    34  27  75 NW9       30.46R WCI  26
HOLYOKE        CLEAR     30  25  80 NW6       30.45R WCI  24
FORT MORGAN    CLOUDY    36  27  69 NW7       30.47R
$$

COZ086-089-092>099-291500-
...SOUTHEAST COLORADO...

CITY           SKY/WX    TMP DP  RH WIND       PRES   REMARKS
PUEBLO         CLOUDY    37  29  72 CALM      30.47R
LA JUNTA       CLOUDY    38  30  73 MISG      30.47R
LAMAR          CLOUDY    38  29  70 CALM      30.45R
SPRINGFIELD      N/A     36  27  69 N10       30.45R
$$



USA.gov is the U.S. government's official web portal to all federal, state and local government web resources and services.